Regional Weather Roundup
Issued by NWS Green Bay, WI

Home | Current Version | Previous Version | Graphics & Text | Print | Product List | Glossary Off
Versions: 1 2 3 4 5 6 7 8 9 10 11 12 13 14 15 16 17 18 19 20 21 22 23 24 25 26 27 28 29 30 31 32 33 34 35 36 37 38 39 40 41 42 43 44 45 46 47 48 49 50

000
ASUS43 KGRB 271900
RWRGRB

NORTH-CENTRAL AND NORTHEAST WISCONSIN REGIONAL WEATHER ROUNDUP
NATIONAL WEATHER SERVICE GREEN BAY WI
200 PM CDT WED JUL 27 2016

WIZ005-009-010>012-018-019-272000-
NORTH CENTRAL WISCONSIN

CITY           SKY/WX    TMP DP  RH WIND       PRES   REMARKS
IRONWOOD       CLOUDY    70  66  88 E6        29.99F
MANITOWISH WTR NOT AVBL
ARBOR VITAE    NOT AVBL
EAGLE RIVER    NOT AVBL
LAND O LAKES   NOT AVBL
RHINELANDER    CLOUDY    72  64  76 CALM      30.03F
PHILLIPS       NOT AVBL
ANTIGO         NOT AVBL
TOMAHAWK       NOT AVBL
MERRILL        NOT AVBL
$$

WIZ013-073-272000-
NORTHEAST WISCONSIN

CITY           SKY/WX    TMP DP  RH WIND       PRES   REMARKS
IRON MOUNTAIN  CLOUDY    73  63  70 CALM      29.99F
MARINETTE      CLOUDY   N/A N/A N/A N5        29.98F
$$

WIZ017-030-035>037-045-272000-
CENTRAL WISCONSIN

CITY           SKY/WX    TMP DP  RH WIND       PRES   REMARKS
MEDFORD        NOT AVBL
WAUSAU         CLOUDY    77  68  73 CALM      29.99F
MOSINEE        MOSUNNY   77  70  78 SE6       30.01F
MARSHFIELD     PTSUNNY   81  68  64 S6        30.00S
WISC RAPIDS    CLOUDY    82  64  54 SE6       30.00F
STEVENS POINT  NOT AVBL
WAUPACA        NOT AVBL
SHAWANO        NOT AVBL
CLINTONVILLE   NOT AVBL
WAUTOMA        CLOUDY    72  67  84 NE3       30.01F
$$

WIZ038-039-048-051-272000-
FOX VALLEY

CITY           SKY/WX    TMP DP  RH WIND       PRES   REMARKS
NWS GREEN BAY  MOSUNNY   77  65  66 CALM      29.98F
APPLETON       PTSUNNY   73  63  68 VRB6      29.98F
OSHKOSH        LGT RAIN  75  67  76 CALM      29.99F
FOND DU LAC    LGT RAIN  75  67  76 N9        29.99F
$$

WIZ022-050-052-272000-
EAST CENTRAL WISCONSIN

CITY           SKY/WX    TMP DP  RH WIND       PRES   REMARKS
EPHRAIM        NOT AVBL
WASHINGTON ISL NOT AVBL
STURGEON BAY   CLOUDY    75  66  73 MISG      29.98
MANITOWOC      NOT AVBL
SHEBOYGAN      TSTM      68  64  87 S5        30.02S FOG
$$

LMZ563-521-522-541>543-272000-
LAKESHORE

STATION/POSITION TIME  TEMP    WIND        PRES    VSBY  WAVE
                       AIR SEA DIR/SP/G                  HT/PER
                 (UTC) (F)     (DEG/KT/KT) (MB)    (MI)  (FT/S)
SHEBOYGAN LKSHOR 1800   73      50/ 12/ 13 1015.7F
KEWAUNEE LKSHORE 1800   81     350/ 11/ 16 1015.2F
ALGOMA MARINA    1813          330/ 14/ 17   N/A
NORTHPORT PIER   1800   73     270/  3/  4 1015.2F
N MID LAKE BUOY  1750   71 70  250/  8/ 10 1015.3R         1
S GREEN BAY BUOY 1800   72 75  270/  6/  6   N/A
SISTER BAY LKSHO 1806   76     360/  5/  5   N/A
CHAMBERS ISLAND  1800   73     270/  3/  6 1015.2F
MENOMINEE LKSHOR 1800   71     330/  2/  3 1014.9F
$$



USA.gov is the U.S. government's official web portal to all federal, state and local government web resources and services.